Three Rivers, MI

5:07 PM EDT on August 24, 2016 (GMT -0400)
Three Rivers Municipal-Haines

Weather History for KHAI - January, 2008

Change the Weather History Date:

Wednesday, January 2, 2008

  Actual Average Record
Temperature  
Mean Temperature 14 °F -  
Max Temperature 23 °F 31 °F 50 °F (1954)
Min Temperature 5 °F 16 °F -5 °F (1974)
Degree Days  
Heating Degree Days 51    
Moisture  
Dew Point 16 °F    
Average Humidity 86    
Maximum Humidity 93    
Minimum Humidity 79    
Precipitation  
Precipitation 0.00 in - - ()
Sea Level Pressure  
Sea Level Pressure 30.39 in    
Wind  
Wind Speed 11 mph (West)    
Max Wind Speed 16 mph    
Max Gust Speed 24 mph    
Visibility 7 miles    
Events Snow    
Averages and records for this station are not official NWS values.
T = Trace of Precipitation, MM = Missing Value Source: NWS Daily Summary

Daily Weather History Graph

Daily Weather History Graph

Search for Another Location

Airport or City:

Trip Planner

Search our weather history database for the weather conditions in past years. The results will help you decide how hot, cold, wet, or windy it might be!

Date:

Astronomy

Jan. 02, 2008 Rise Set
Actual Time 8:10 AM EST 5:22 PM EST
Civil Twilight 7:38 AM EST 5:53 PM EST
Nautical Twilight 7:03 AM EST 6:28 PM EST
Astronomical Twilight 6:29 AM EST 7:02 PM EST
Moon 2:58 AM EST (1/2) 1:00 PM EST (1/2)
Length of Visible Light 10h 14m
Length of Day
9h 11m
Waning Crescent, 28% of the Moon is Illuminated
Jan 2
Waning Crescent
Jan 8
New
Jan 15
First Quarter
Jan 22
Full
Jan 30
Last Quarter

Hourly Weather History & Observations

Time (EST) Temp. Windchill Dew Point Humidity Pressure Visibility Wind Dir Wind Speed Gust Speed Precip Events Conditions
12:14 AM 23.0 °F 11.1 °F 21.2 °F 93% 30.17 in 1.8 mi WNW 12.7 mph - N/A Snow Light Snow
12:34 AM 23.0 °F 10.1 °F 21.2 °F 93% 30.17 in 3.0 mi NW 15.0 mph 19.6 mph N/A Snow Light Snow
12:55 AM 23.0 °F 10.6 °F 21.2 °F 93% 30.18 in 3.0 mi NW 13.8 mph - N/A Snow Light Snow
1:17 AM 23.0 °F 10.6 °F 21.2 °F 93% 30.18 in 4.0 mi NW 13.8 mph 20.7 mph N/A Snow Light Snow
1:34 AM 23.0 °F 10.1 °F 21.2 °F 93% 30.19 in 4.0 mi WNW 15.0 mph 20.7 mph N/A Snow Light Snow
1:55 AM 23.0 °F 11.1 °F 21.2 °F 93% 30.19 in 4.0 mi NW 12.7 mph 18.4 mph N/A Snow Light Snow
2:14 AM 23.0 °F 12.4 °F 21.2 °F 93% 30.20 in 10.0 mi NW 10.4 mph 18.4 mph N/A Snow Light Snow
2:34 AM 23.0 °F 11.1 °F 21.2 °F 93% 30.22 in 10.0 mi WNW 12.7 mph 20.7 mph N/A   Overcast
2:55 AM 23.0 °F 11.1 °F 21.2 °F 93% 30.23 in 7.0 mi NW 12.7 mph 19.6 mph N/A   Overcast
3:14 AM 23.0 °F 10.6 °F 21.2 °F 93% 30.24 in 7.0 mi NW 13.8 mph 21.9 mph N/A   Overcast
3:34 AM 23.0 °F 10.6 °F 21.2 °F 93% 30.25 in 10.0 mi NW 13.8 mph 20.7 mph N/A   Overcast
3:55 AM 23.0 °F 10.1 °F 19.4 °F 86% 30.25 in 10.0 mi NW 15.0 mph 24.2 mph N/A   Overcast
4:14 AM 23.0 °F 11.1 °F 19.4 °F 86% 30.26 in 10.0 mi WNW 12.7 mph 20.7 mph N/A   Overcast
4:34 AM 23.0 °F 11.1 °F 19.4 °F 86% 30.27 in 10.0 mi NW 12.7 mph - N/A   Overcast
4:55 AM 23.0 °F 9.6 °F 19.4 °F 86% 30.27 in 10.0 mi WNW 16.1 mph - N/A   Overcast
5:14 AM 23.0 °F 11.1 °F 19.4 °F 86% 30.29 in 10.0 mi WNW 12.7 mph - N/A   Overcast
5:34 AM 21.2 °F 9.5 °F 19.4 °F 93% 30.29 in 10.0 mi WNW 11.5 mph - N/A   Overcast
5:55 AM 21.2 °F 10.1 °F 19.4 °F 93% 30.31 in 10.0 mi WNW 10.4 mph - N/A   Overcast
6:17 AM 21.2 °F 10.1 °F 19.4 °F 93% 30.33 in 10.0 mi WNW 10.4 mph - N/A   Overcast
6:34 AM 21.2 °F 10.1 °F 19.4 °F 93% 30.34 in 10.0 mi WNW 10.4 mph - N/A   Overcast
6:55 AM 23.0 °F 13.9 °F 17.6 °F 80% 30.34 in 10.0 mi NW 8.1 mph - N/A   Overcast
7:14 AM 23.0 °F 14.7 °F 19.4 °F 86% 30.35 in 10.0 mi NW 6.9 mph - N/A   Overcast
7:34 AM 23.0 °F 11.7 °F 19.4 °F 86% 30.36 in 10.0 mi WNW 11.5 mph - N/A   Overcast
7:55 AM 23.0 °F 12.4 °F 19.4 °F 86% 30.37 in 10.0 mi WNW 10.4 mph - N/A Snow Light Snow
8:14 AM 23.0 °F 13.1 °F 19.4 °F 86% 30.37 in 10.0 mi WNW 9.2 mph - N/A Snow Light Snow
8:34 AM 23.0 °F 13.1 °F 19.4 °F 86% 30.38 in 10.0 mi WNW 9.2 mph - N/A Snow Light Snow
8:55 AM 23.0 °F 13.9 °F 19.4 °F 86% 30.38 in 7.0 mi WNW 8.1 mph - N/A Snow Light Snow
9:14 AM 23.0 °F 13.1 °F 19.4 °F 86% 30.39 in 5.0 mi West 9.2 mph - N/A Snow Light Snow
9:34 AM 23.0 °F 13.9 °F 19.4 °F 86% 30.40 in 3.0 mi West 8.1 mph - N/A Snow Light Snow
9:55 AM 23.0 °F 13.9 °F 19.4 °F 86% 30.42 in 2.5 mi West 8.1 mph - N/A Snow Light Snow
10:14 AM 23.0 °F 14.7 °F 21.2 °F 93% 30.43 in 1.5 mi West 6.9 mph - N/A Snow Light Snow
10:34 AM 23.0 °F 15.8 °F 21.2 °F 93% 30.44 in 1.2 mi West 5.8 mph - N/A Snow Light Snow
10:55 AM 23.0 °F 14.7 °F 19.4 °F 86% 30.45 in 2.5 mi West 6.9 mph - N/A Snow Light Snow
11:14 AM 23.0 °F 13.1 °F 19.4 °F 86% 30.46 in 2.5 mi West 9.2 mph - N/A Snow Light Snow
11:34 AM 19.4 °F 8.6 °F 15.8 °F 86% 30.46 in 3.0 mi South 9.2 mph - N/A Snow Light Snow
11:55 AM 19.4 °F 9.5 °F 14.0 °F 80% 30.47 in 3.0 mi SSW 8.1 mph - N/A Snow Light Snow
12:14 PM 17.6 °F 6.4 °F 12.2 °F 79% 30.47 in 7.0 mi South 9.2 mph - N/A Snow Light Snow
12:34 PM 17.6 °F 5.7 °F 12.2 °F 79% 30.47 in 7.0 mi South 10.4 mph - N/A Snow Light Snow
12:55 PM 17.6 °F 8.2 °F 12.2 °F 79% 30.48 in 2.5 mi South 6.9 mph - N/A Snow Light Snow
1:14 PM 17.6 °F 7.3 °F 12.2 °F 79% 30.48 in 2.0 mi SSW 8.1 mph - N/A Snow Light Snow
1:34 PM 17.6 °F 8.2 °F 12.2 °F 79% 30.48 in 7.0 mi SW 6.9 mph - N/A Snow Light Snow
1:55 PM 17.6 °F 7.3 °F 12.2 °F 79% 30.48 in 10.0 mi SW 8.1 mph - N/A   Overcast
2:14 PM 17.6 °F 8.2 °F 12.2 °F 79% 30.49 in 10.0 mi WSW 6.9 mph - N/A   Overcast
2:34 PM 17.6 °F 8.2 °F 12.2 °F 79% 30.50 in 10.0 mi WSW 6.9 mph - N/A   Overcast
2:55 PM 17.6 °F 6.4 °F 12.2 °F 79% 30.49 in 10.0 mi SW 9.2 mph - N/A   Mostly Cloudy
3:14 PM 17.6 °F 8.2 °F 12.2 °F 79% 30.51 in 10.0 mi SSW 6.9 mph - N/A   Overcast
3:34 PM 17.6 °F 8.2 °F 12.2 °F 79% 30.51 in 2.5 mi SSW 6.9 mph - N/A Snow Light Snow
3:55 PM 17.6 °F 10.7 °F 12.2 °F 79% 30.53 in 1.0 mi West 4.6 mph - N/A Snow Light Snow
4:14 PM 17.6 °F 9.3 °F 12.2 °F 79% 30.54 in 1.2 mi WSW 5.8 mph - N/A Snow Light Snow
4:34 PM 17.6 °F - 12.2 °F 79% 30.54 in 1.8 mi Calm Calm - N/A Snow Light Snow
4:55 PM 15.8 °F 10.2 °F 12.2 °F 86% 30.55 in 1.5 mi South 3.5 mph - N/A Snow Light Snow
5:14 PM 10.4 °F -0.4 °F 8.6 °F 92% 30.55 in 10.0 mi SW 6.9 mph - N/A   Scattered Clouds
5:34 PM 12.2 °F 6.1 °F 8.6 °F 85% 30.56 in 10.0 mi SW 3.5 mph - N/A   Clear
5:55 PM 5.0 °F -5.6 °F 3.2 °F 92% 30.57 in 10.0 mi SSW 5.8 mph - N/A   Clear
6:14 PM 8.6 °F 0.1 °F 5.0 °F 85% 30.59 in 10.0 mi SSW 4.6 mph - N/A   Clear
6:34 PM 6.8 °F -2.0 °F 3.2 °F 85% 30.59 in 10.0 mi SSW 4.6 mph - N/A   Scattered Clouds
6:55 PM 10.4 °F 2.2 °F 6.8 °F 85% 30.59 in 10.0 mi South 4.6 mph - N/A   Overcast
7:14 PM 10.4 °F 2.2 °F 8.6 °F 92% 30.60 in 10.0 mi SW 4.6 mph - N/A   Overcast
7:34 PM 10.4 °F -0.4 °F 6.8 °F 85% 30.61 in 10.0 mi SSW 6.9 mph - N/A   Overcast
7:55 PM 8.6 °F 0.1 °F 5.0 °F 85% 30.61 in 10.0 mi South 4.6 mph - N/A   Overcast
8:14 PM 10.4 °F 4.0 °F 6.8 °F 85% 30.62 in 7.0 mi South 3.5 mph - N/A Snow Light Snow
8:34 PM 10.4 °F 0.8 °F 8.6 °F 92% 30.62 in 4.0 mi SSW 5.8 mph - N/A Snow Light Snow
8:55 PM 10.4 °F 0.8 °F 8.6 °F 92% 30.62 in 2.0 mi SSW 5.8 mph - N/A Snow Light Snow
9:14 PM 10.4 °F 2.2 °F 8.6 °F 92% 30.62 in 4.0 mi SSW 4.6 mph - N/A Snow Light Snow
9:34 PM 12.2 °F 6.1 °F 8.6 °F 85% 30.62 in 4.0 mi SSW 3.5 mph - N/A Snow Light Snow
9:55 PM 12.2 °F 6.1 °F 8.6 °F 85% 30.62 in 3.0 mi South 3.5 mph - N/A Snow Light Snow
10:14 PM 12.2 °F 6.1 °F 8.6 °F 85% 30.62 in 2.0 mi South 3.5 mph - N/A Snow Light Snow
10:34 PM 12.2 °F - 10.4 °F 92% 30.63 in 2.5 mi Calm Calm - N/A Snow Light Snow
10:55 PM 12.2 °F - 10.4 °F 92% 30.63 in 2.0 mi Calm Calm - N/A Snow Light Snow
11:14 PM 12.2 °F 6.1 °F 10.4 °F 92% 30.63 in 3.0 mi SSW 3.5 mph - N/A Snow Light Snow
11:34 PM 12.2 °F - 10.4 °F 92% 30.63 in 4.0 mi Calm Calm - N/A Snow Light Snow
11:55 PM 14.0 °F - 12.2 °F 93% 30.64 in 2.0 mi Calm Calm - N/A Snow Light Snow